DELTA 1 DEB, 15540

Orbit data source: Space-Track

DELTA 1 DEB, 15540 is space debris in LEO originally from a launch on Thu, 29 Jul 1976 UTC launched from the Air Force Western Test Range (AFWTR). Debris objects in space refer to the collection of defunct objects orbiting the Earth. Examples of debris include non-operational satellites, rocket bodies, and fragments generated from explosions, collisions, or faulty payload assembly.

Loading next visibility...
Identifier
15540, 1976-077EU
Orbit
LEO
Country
Flag of USUS
Related business
Manufacturer
Unknown
Mission
Spacecraft
Bus & Motor
Unknown
Mass
Unknown
Launch date (UTC)
1976-07-29 (50 years ago)
Launch vehicle
Unknown
Launch site
Air Force Western Test Range (AFWTR)
Object type
Payload
Rocket body
Debris
Shape & HBR
Unknown shape, 0.1 m
Radar Cross Section
Small (<0.1 m²)

Expand to show TLE details & history
Last TLE update: 2 days ago

TLE from 2 days ago
0 DELTA 1 DEB
1 15540U 76077EU  26117.63534178  .00001714  00000-0  21035-1 0  9991
2 15540 102.7177  71.3646 0570037 111.9471  66.7229 11.68071343493142
Epoch: 2026-04-27T15:14Z
TLE epoch observation values (Epoch: 2026-04-27T15:14:53.529Z)
Latitude
-4.84029°
Longitude
165.92961°
Altitude
1,668.625 km
Speed
7.108 km/s
True Right ascension
16h 41m 05s
True Declination
-4° 48' 53"
Sunlit
Object was in full shadow at epoch
Visualization orbit readout
Latitude
Unknown
Longitude
Unknown
Altitude
Unknown
Speed
Unknown
Apparent Right ascension
Unknown
Apparent Declination
Unknown
Sunlit
N/A
Visualization observer readout
Local Sidereal Time
14:43:48
Azimuth
Unknown
Elevation
Unknown
Doppler factor
Unknown
Orbital elements
Apogee altitude
2,292.355 km
Perigee altitude
1,357.164 km
Semi-major axis
8,202.896 km
Eccentricity
0.057
Inclination
102.7177°
RAAN
71.3646°
Arg. of periapsis
111.9471°
True anomaly
72.88506°
Mean anomaly
66.7229°
Eccentric anomaly
69.78785°
Mean motion
2.92141 °/min
Orbital period
123.23 mins
BSTAR
0.021035
Loading maneuver chart data...
Computing Atmospheric mass density...
Loading historical data...
Loading historical data...
Loading historical data...
Loading historical data...
Loading historical data...
Loading historical data...
Loading historical data...

Documentation

Showing up to 5 results
|